Regional Weather Roundup
Issued by NWS

Home | Current Version | Previous Version | Graphics & Text | Print | Product List | Glossary On
Versions: 1 2 3 4 5 6 7 8 9 10 11 12 13 14 15 16 17 18 19 20 21 22 23 24 25 26 27 28 29 30 31 32 33 34 35 36 37 38 39 40 41 42 43 44 45 46 47 48 49 50
638
ASUS43 KLOT 291608
RWRIL

ILLINOIS REGIONAL WEATHER ROUNDUP
NATIONAL WEATHER SERVICE CHICAGO/ROMEOVILLE IL
1100 AM CDT WED MAR 29 2017

NOTE: "FAIR" INDICATES FEW OR NO CLOUDS BELOW 12,000 FEET WITH NO
SIGNIFICANT WEATHER AND/OR OBSTRUCTIONS TO VISIBILITY.

* THESE STATIONS ARE NOT UNDER NWS QUALITY CONTROL. THEY ALSO MAY NOT
  REPORT WEATHER SUCH AS PRECIPITATION OR FOG.

ILZ001-002-007-009-015-016-024-291700-
NORTHWEST ILLINOIS

CITY           SKY/WX    TMP DP  RH WIND       PRES   REMARKS
MOLINE         LGT RAIN  43  40  89 E15       30.16F FOG
STERLING*      MOSUNNY   45  40  82 E16       30.21S
SAVANNA*       CLOUDY    44  38  79 E10       30.21S
$$

ILZ003-004-008-010-011-017-018-291700-
NORTH CENTRAL ILLINOIS

CITY           SKY/WX    TMP DP  RH WIND       PRES   REMARKS
ROCKFORD       CLOUDY    47  35  63 E12       30.25S
FREEPORT*      CLOUDY    43  38  82 E14       30.24F
ROCHELLE*      PTSUNNY   46  35  63 E14G20    30.22F
DE KALB*       PTSUNNY   47  34  60 E13       30.22F
PERU*          CLOUDY    46  39  78 E14       30.20F
$$

ILZ005-006-012>014-019>023-291700-
NORTHEAST ILLINOIS

CITY           SKY/WX    TMP DP  RH WIND       PRES   REMARKS
CHICAGO-OHARE  CLOUDY    46  36  68 NE14      30.24S
CHICAGO-MIDWAY CLOUDY    46  36  68 NE10G23   30.25S
AURORA         CLOUDY    50  35  56 NE14      30.22S
LANSING*       PTSUNNY   52  39  62 E15G21    30.23S
JOLIET*        CLOUDY    53  37  55 E9        30.22S
WAUKEGAN       CLOUDY    40  37  89 NE9       30.26F
DUPAGE AIRPORT CLOUDY    47  36  65 NE9       30.23S
KANKAKEE*      MOSUNNY   53  36  53 E16G26    30.20S
WHEELING       CLOUDY    41  37  86 NE10      30.27S
MORRIS*        CLOUDY    51  38  61 E10       30.20S
ROMEOVILLE*    CLOUDY    48  38  68 E8        30.23R
NORTHERLY ISL    N/A     41  38  89 N13         N/A
$$

LMZ740>746-291700-
SOUTHERN LAKE MICHIGAN

STATION/POSITION SKY/WX   TEMP    WIND        PRES    VSBY  WAVE
                          AIR SEA DIR/SP/G                  HT/PER
                          (F)     (DEG/KT/KT) (MB)    (MI)  (FT/S)
HARRISON CRIB              39      40/ 14/ 15   N/A
BURNHAM HARBOR             40      30/ 10/ 12   N/A
CALUMET HARBOR             40      20/ 11/ 13 1023.6F
BURNS HARBOR               49      90/  9/ 11 1024.0F
MICHIGAN CITY              48      90/ 11/ 14   N/A
$$

ILZ025>027-034>036-040-047-049-050-058-095>099-291700-
WEST-CENTRAL ILLINOIS

CITY           SKY/WX    TMP DP  RH WIND       PRES   REMARKS
QUINCY         RAIN      46  44  93 E21G31    30.04R FOG
GALESBURG*     RAIN      44  43  94 E9        30.14F
MACOMB*        LGT RAIN  45  45  99 E9        30.17R
JACKSONVILLE*  CLOUDY    48  46  93 N6        30.14R
PITTSFIELD*    TSTM      46  46  97 NE13      30.09F
$$

ILZ028>032-037-038-041>044-048-051>054-059>061-291700-
CENTRAL ILLINOIS

CITY           SKY/WX    TMP DP  RH WIND       PRES   REMARKS
PONTIAC        CLOUDY    51  44  77 E18       30.19F
BLOOMINGTON    CLOUDY    48  43  81 E20G26    30.17R
DECATUR        CLOUDY    51  44  77 E18G26    30.15R
PEORIA         CLOUDY    49  44  83 E13       30.18R
LACON*         CLOUDY    48  43  81 E12G18    30.18S
LINCOLN*       CLOUDY    52  46  82 E14       30.17R
SPRINGFIELD    LGT RAIN  53  46  77 E14       30.12S
TAYLORVILLE    CLOUDY    54  46  76 E14       30.11S
$$

ILZ033-039-045-046-055>057-062-063-291700-
EAST-CENTRAL ILLINOIS

CITY           SKY/WX    TMP DP  RH WIND       PRES   REMARKS
CHAMPAIGN      MOSUNNY   54  42  64 E24G30    30.13S
RANTOUL*       MOSUNNY   56  40  56 E18G25    30.16R
MATTOON        CLOUDY    55  47  74 E14G21    30.11R
PARIS*         CLOUDY    49  45  84 E13       30.16R
$$

ILZ079-100>102-291700-
SOUTHWEST ILLINOIS

CITY           SKY/WX    TMP DP  RH WIND       PRES   REMARKS
ALTON          CLOUDY    52  48  87 E14       30.05F
BELLEVILLE     PTSUNNY   56  53  87 NE14      30.03R
CAHOKIA*       CLOUDY    56  49  77 E14G21    30.02F
SPARTA*        CLOUDY    56  51  82 E13G18    30.05R
$$

ILZ064>066-069>071-074>076-080>082-084>086-088>090-092>094-291700-
SOUTH-CENTRAL ILLINOIS

CITY           SKY/WX    TMP DP  RH WIND       PRES   REMARKS
CARBONDALE     CLOUDY    60  54  80 E12       30.04R
CAIRO*         CLOUDY    60  55  82 E12       30.02F
EFFINGHAM*     CLOUDY    56  50  80 E12G17    30.14R
MARION         CLOUDY    61  55  82 E12       30.06
MT. VERNON     MOSUNNY   60  51  72 E16G22    30.05F
CENTRALIA*     CLOUDY    61  53  74 E13G20    30.04F
SALEM*         CLOUDY    59  49  70 E14G20    30.07F
METROPOLIS*    CLOUDY    62  55  76 E6        30.06F
$$

ILZ067-068-072-073-078-083-087-091-291700-
SOUTHEAST ILLINOIS

CITY           SKY/WX    TMP DP  RH WIND       PRES   REMARKS
LAWRENCEVILLE  CLOUDY    58  50  75 E13       30.14R
FLORA*         CLOUDY    60  51  73 E10G16    30.12R
FAIRFIELD*     PTSUNNY   60  52  73 SE9       30.09F
HARRISBURG*    PTSUNNY   59  54  83 E13G18    30.07F
ROBINSON*      CLOUDY    55  48  76 E14       30.15R
CARMI*         MOSUNNY   62  53  73 E14       30.09F
$$

ABBREVIATIONS USED IN REMARKS
   TC - TEMPERATURE IN CELSIUS
  WCI - WIND CHILL INDEX
   HX - HEAT INDEX
  VSB - VISIBILITY
$$





USA.gov is the U.S. government's official web portal to all federal, state and local government web resources and services.